Location: Unspecified
(43.4354°N, 0.0000°E)
Time: 03:32:58
(UTC+00:00)

A-11 Canister half - Pass Details

Date: 27 June 2019
Orbit: 1514 x 1685 km, 47.2° (Epoch: 22 July)

Event Time Altitude Azimuth Distance (km) Brightness Sun altitude
Rises 17:54:05 0° 285° (WNW) 4,748 13.4 17.4°
Reaches altitude 10° 18:00:40 10° 252° (WSW) 3,716 12.1 16.2°
Maximum altitude 18:02:42 11° 239° (WSW) 3,634 11.7 15.9°
Drops below altitude 10° 18:04:43 10° 226° (SW) 3,691 11.5 15.5°
Sets 18:11:13 0° 193° (SSW) 4,646 11.5 14.4°
